Datum;Stunde;Lohauser Deich;Wetter;Temperatur;Gefuehlte Temperatur;Regen
01.01.2018;00:00:00;0;Leichter Regenfall;7;7;0
01.01.2018;01:00:00;0;Leichter Regenfall;7;6;0
01.01.2018;02:00:00;3;Bewölkt;7;5;0
01.01.2018;03:00:00;0;Bewölkt;7;5;0
01.01.2018;04:00:00;0;Bewölkt;7;5;0
01.01.2018;05:00:00;0;Stellenweiser Regenfall;8;4;0
01.01.2018;06:00:00;0;Stellenweiser Regenfall;8;4;0
01.01.2018;07:00:00;4;Stellenweiser Regenfall;8;4;0
01.01.2018;08:00:00;2;Stellenweiser Regenfall;8;4;0
01.01.2018;09:00:00;6;Stellenweiser Regenfall;8;3;0
01.01.2018;10:00:00;4;Stellenweiser Regenfall;8;4;0
01.01.2018;11:00:00;7;Stellenweiser Regenfall;8;4;0
01.01.2018;12:00:00;21;Stellenweiser Regenfall;8;4;0
01.01.2018;13:00:00;41;Stellenweiser Regenfall;8;5;0
01.01.2018;14:00:00;27;Stellenweiser Regenfall;8;5;0
01.01.2018;15:00:00;16;Stellenweiser Regenfall;8;5;0
01.01.2018;16:00:00;9;Stellenweiser Regenfall;8;5;0
01.01.2018;17:00:00;3;Nieselregen;7;5;0
01.01.2018;18:00:00;0;Nieselregen;7;5;0
01.01.2018;19:00:00;3;Nieselregen;7;4;1
01.01.2018;20:00:00;0;Leichter Regenfall;7;4;1
01.01.2018;21:00:00;0;Leichter Regenfall;7;4;1
01.01.2018;22:00:00;0;Leichter Regenfall;6;3;1
01.01.2018;23:00:00;0;Mäßiger Regenfall;6;3;1
02.01.2018;00:00:00;0;Mäßiger Regenfall;6;3;1
02.01.2018;01:00:00;0;Mäßiger Regenfall;6;3;1
02.01.2018;02:00:00;0;Mäßiger Regenfall;6;3;1
02.01.2018;03:00:00;0;Mäßiger Regenfall;6;3;0
02.01.2018;04:00:00;0;Mäßiger Regenfall;6;3;0
02.01.2018;05:00:00;10;Nieselregen;6;3;0
02.01.2018;06:00:00;9;Nieselregen;6;3;0
02.01.2018;07:00:00;28;Nieselregen;6;3;0
02.01.2018;08:00:00;29;Bedeckt;7;3;0
02.01.2018;09:00:00;13;Bedeckt;7;3;0
02.01.2018;10:00:00;13;Bedeckt;7;3;0
02.01.2018;11:00:00;7;Leichter Regenschauer;7;3;0
02.01.2018;12:00:00;20;Leichter Regenschauer;7;3;0
02.01.2018;13:00:00;16;Leichter Regenschauer;7;3;0
02.01.2018;14:00:00;20;Leichter Regenschauer;7;4;0
02.01.2018;15:00:00;23;Leichter Regenschauer;6;4;0
02.01.2018;16:00:00;19;Leichter Regenschauer;6;4;0
02.01.2018;17:00:00;21;Stellenweiser Regenfall;6;4;0
02.01.2018;18:00:00;16;Stellenweiser Regenfall;6;4;0
02.01.2018;19:00:00;8;Stellenweiser Regenfall;6;4;0
02.01.2018;20:00:00;5;Leichter Regenfall;6;3;1
02.01.2018;21:00:00;2;Leichter Regenfall;5;3;1
02.01.2018;22:00:00;5;Leichter Regenfall;6;3;1
02.01.2018;23:00:00;2;Mäßiger Regenfall;7;4;1
03.01.2018;00:00:00;0;Mäßiger Regenfall;8;5;1
03.01.2018;01:00:00;0;Mäßiger Regenfall;8;6;1
03.01.2018;02:00:00;0;Mäßiger Regenfall;9;7;1
03.01.2018;03:00:00;0;Mäßiger Regenfall;9;8;1
03.01.2018;04:00:00;0;Mäßiger Regenfall;9;8;1
03.01.2018;05:00:00;11;Mäßiger bis starker Regen mit Gewitter;9;8;1
03.01.2018;06:00:00;9;Mäßiger bis starker Regen mit Gewitter;9;8;1
03.01.2018;07:00:00;22;Mäßiger bis starker Regen mit Gewitter;10;7;1
03.01.2018;08:00:00;20;Mäßiger Regenfall;10;6;1
03.01.2018;09:00:00;8;Mäßiger Regenfall;10;5;1
03.01.2018;10:00:00;3;Mäßiger Regenfall;10;5;1
03.01.2018;11:00:00;0;Leichter Regenschauer;10;4;1
03.01.2018;12:00:00;6;Leichter Regenschauer;11;4;1
03.01.2018;13:00:00;0;Leichter Regenschauer;10;4;0
03.01.2018;14:00:00;11;Leichter Regenschauer;10;4;0
03.01.2018;15:00:00;6;Leichter Regenschauer;10;4;0
03.01.2018;16:00:00;8;Leichter Regenschauer;9;4;1
03.01.2018;17:00:00;23;Leichter Regenfall;9;4;1
03.01.2018;18:00:00;14;Leichter Regenfall;8;4;1
03.01.2018;19:00:00;10;Leichter Regenfall;8;4;1
03.01.2018;20:00:00;8;Mäßiger bis starker Regen mit Gewitter;7;4;1
03.01.2018;21:00:00;2;Mäßiger bis starker Regen mit Gewitter;7;4;1
03.01.2018;22:00:00;0;Mäßiger bis starker Regen mit Gewitter;7;3;1
03.01.2018;23:00:00;4;Leichter Regenfall;6;3;1
04.01.2018;00:00:00;0;Leichter Regenfall;6;3;1
04.01.2018;01:00:00;0;Leichter Regenfall;6;3;0
04.01.2018;02:00:00;0;Leichter Regenfall;6;3;0
04.01.2018;03:00:00;0;Leichter Regenfall;7;3;0
04.01.2018;04:00:00;2;Leichter Regenfall;7;3;0
04.01.2018;05:00:00;7;Leicht bewölkt;7;3;0
04.01.2018;06:00:00;12;Leicht bewölkt;8;3;0
04.01.2018;07:00:00;32;Leicht bewölkt;8;3;0
04.01.2018;08:00:00;27;Bedeckt;8;4;0
04.01.2018;09:00:00;15;Bedeckt;9;4;0
04.01.2018;10:00:00;8;Bedeckt;9;4;0
04.01.2018;11:00:00;10;Bedeckt;9;5;0
04.01.2018;12:00:00;10;Bedeckt;10;5;0
04.01.2018;13:00:00;10;Bedeckt;10;6;0
04.01.2018;14:00:00;11;Nieselregen;10;6;0
04.01.2018;15:00:00;11;Nieselregen;10;7;0
04.01.2018;16:00:00;19;Nieselregen;9;7;0
04.01.2018;17:00:00;25;Leichter Regenfall;9;6;0
04.01.2018;18:00:00;15;Leichter Regenfall;9;6;0
04.01.2018;19:00:00;9;Leichter Regenfall;9;5;0
04.01.2018;20:00:00;9;Leichter Regenfall;9;5;0
04.01.2018;21:00:00;2;Leichter Regenfall;9;4;0
04.01.2018;22:00:00;5;Leichter Regenfall;9;4;0
04.01.2018;23:00:00;4;Leichter Regenschauer;8;3;0
05.01.2018;00:00:00;2;Leichter Regenschauer;8;3;0
05.01.2018;01:00:00;0;Leichter Regenschauer;8;4;0
05.01.2018;02:00:00;0;Stellenweiser Regenfall;8;4;0
05.01.2018;03:00:00;0;Stellenweiser Regenfall;8;4;0
05.01.2018;04:00:00;2;Stellenweiser Regenfall;9;5;0
05.01.2018;05:00:00;16;Nieselregen;9;5;0
05.01.2018;06:00:00;15;Nieselregen;9;5;0
05.01.2018;07:00:00;26;Nieselregen;9;5;0
05.01.2018;08:00:00;34;Leicht bewölkt;9;5;0
05.01.2018;09:00:00;11;Leicht bewölkt;9;5;0
05.01.2018;10:00:00;7;Leicht bewölkt;9;6;0
05.01.2018;11:00:00;20;Leicht bewölkt;9;6;0
05.01.2018;12:00:00;18;Leicht bewölkt;9;6;0
05.01.2018;13:00:00;23;Leicht bewölkt;9;7;0
05.01.2018;14:00:00;22;Leicht bewölkt;9;7;0
05.01.2018;15:00:00;25;Leicht bewölkt;9;7;0
05.01.2018;16:00:00;34;Leicht bewölkt;8;7;0
05.01.2018;17:00:00;19;Bedeckt;8;7;0
05.01.2018;18:00:00;15;Bedeckt;7;6;0
05.01.2018;19:00:00;8;Bedeckt;7;6;0
05.01.2018;20:00:00;12;Leichter Regenschauer;6;6;0
05.01.2018;21:00:00;2;Leichter Regenschauer;6;6;0
05.01.2018;22:00:00;0;Leichter Regenschauer;5;5;0
05.01.2018;23:00:00;4;Stellenweiser Regenfall;5;5;0
06.01.2018;00:00:00;2;Stellenweiser Regenfall;5;5;0
06.01.2018;01:00:00;0;Stellenweiser Regenfall;5;4;0
06.01.2018;02:00:00;0;Leichter Regenschauer;5;4;0
06.01.2018;03:00:00;0;Leichter Regenschauer;5;4;0
06.01.2018;04:00:00;3;Leichter Regenschauer;5;4;0
06.01.2018;05:00:00;2;Leicht bewölkt;6;3;0
06.01.2018;06:00:00;0;Leicht bewölkt;6;3;0
06.01.2018;07:00:00;4;Leicht bewölkt;6;3;0
06.01.2018;08:00:00;8;Leicht bewölkt;6;4;0
06.01.2018;09:00:00;15;Leicht bewölkt;7;4;0
06.01.2018;10:00:00;24;Leicht bewölkt;7;5;0
06.01.2018;11:00:00;21;Bewölkt;7;5;0
06.01.2018;12:00:00;28;Bewölkt;7;6;0
06.01.2018;13:00:00;42;Bewölkt;7;6;0
06.01.2018;14:00:00;22;Bewölkt;7;6;0
06.01.2018;15:00:00;33;Bewölkt;7;6;0
06.01.2018;16:00:00;16;Bewölkt;6;6;0
06.01.2018;17:00:00;16;Stellenweiser Regenfall;6;5;0
06.01.2018;18:00:00;11;Stellenweiser Regenfall;6;4;0
06.01.2018;19:00:00;6;Stellenweiser Regenfall;5;4;0
06.01.2018;20:00:00;0;Bedeckt;5;4;0
06.01.2018;21:00:00;0;Bedeckt;4;3;0
06.01.2018;22:00:00;0;Bedeckt;4;3;0
06.01.2018;23:00:00;2;Nieselregen;4;3;0
07.01.2018;00:00:00;0;Nieselregen;4;2;0
07.01.2018;01:00:00;0;Nieselregen;4;2;0
07.01.2018;02:00:00;0;Bedeckt;4;2;0
07.01.2018;03:00:00;0;Bedeckt;4;1;0
07.01.2018;04:00:00;0;Bedeckt;4;1;0
07.01.2018;05:00:00;2;Leichter Regenfall;4;1;0
07.01.2018;06:00:00;0;Leichter Regenfall;4;0;0
07.01.2018;07:00:00;2;Leichter Regenfall;4;0;0
07.01.2018;08:00:00;2;Nieselregen;4;0;0
07.01.2018;09:00:00;8;Nieselregen;4;-1;0
07.01.2018;10:00:00;19;Nieselregen;4;0;0
07.01.2018;11:00:00;12;Bewölkt;4;0;0
07.01.2018;12:00:00;40;Bewölkt;4;0;0
07.01.2018;13:00:00;26;Bewölkt;4;0;0
07.01.2018;14:00:00;34;Leicht bewölkt;4;0;0
07.01.2018;15:00:00;42;Leicht bewölkt;4;0;0
07.01.2018;16:00:00;22;Leicht bewölkt;4;0;0
07.01.2018;17:00:00;13;Bewölkt;4;0;0
07.01.2018;18:00:00;4;Bewölkt;4;0;0
07.01.2018;19:00:00;4;Bewölkt;4;-1;0
07.01.2018;20:00:00;4;Bewölkt;3;-1;0
07.01.2018;21:00:00;0;Bewölkt;3;-1;0
07.01.2018;22:00:00;4;Bewölkt;3;-1;0
07.01.2018;23:00:00;0;Leicht bewölkt;3;-2;0
08.01.2018;00:00:00;0;Leicht bewölkt;3;-2;0
08.01.2018;01:00:00;0;Leicht bewölkt;3;-2;0
08.01.2018;02:00:00;0;Leicht bewölkt;3;-2;0
08.01.2018;03:00:00;0;Leicht bewölkt;3;-2;0
08.01.2018;04:00:00;2;Leicht bewölkt;4;-2;0
08.01.2018;05:00:00;9;Leicht bewölkt;4;-2;0
08.01.2018;06:00:00;29;Leicht bewölkt;4;-1;0
08.01.2018;07:00:00;60;Leicht bewölkt;5;-1;0
08.01.2018;08:00:00;50;Leicht bewölkt;5;-1;0
08.01.2018;09:00:00;15;Leicht bewölkt;6;0;0
08.01.2018;10:00:00;0;Leicht bewölkt;6;0;0
08.01.2018;11:00:00;13;Leicht bewölkt;6;1;0
08.01.2018;12:00:00;12;Leicht bewölkt;6;2;0
08.01.2018;13:00:00;17;Leicht bewölkt;6;3;0
08.01.2018;14:00:00;26;Leicht bewölkt;6;3;0
08.01.2018;15:00:00;39;Leicht bewölkt;6;3;0
08.01.2018;16:00:00;32;Leicht bewölkt;5;3;0
08.01.2018;17:00:00;35;Leicht bewölkt;5;3;0
08.01.2018;18:00:00;21;Leicht bewölkt;5;2;0
08.01.2018;19:00:00;19;Leicht bewölkt;4;2;0
08.01.2018;20:00:00;6;Leicht bewölkt;4;2;0
08.01.2018;21:00:00;6;Leicht bewölkt;4;1;0
08.01.2018;22:00:00;6;Leicht bewölkt;3;1;0
08.01.2018;23:00:00;0;Leicht bewölkt;3;1;0
09.01.2018;00:00:00;2;Leicht bewölkt;3;1;0
09.01.2018;01:00:00;0;Leicht bewölkt;3;1;0
09.01.2018;02:00:00;0;Bewölkt;3;1;0
09.01.2018;03:00:00;0;Bewölkt;3;1;0
09.01.2018;04:00:00;0;Bewölkt;4;1;0
09.01.2018;05:00:00;12;Leicht bewölkt;4;0;0
09.01.2018;06:00:00;29;Leicht bewölkt;5;0;0
09.01.2018;07:00:00;47;Leicht bewölkt;5;0;0
09.01.2018;08:00:00;46;Leicht bewölkt;6;1;0
09.01.2018;09:00:00;16;Leicht bewölkt;6;1;0
09.01.2018;10:00:00;14;Leicht bewölkt;6;2;0
09.01.2018;11:00:00;16;Leicht bewölkt;7;2;0
09.01.2018;12:00:00;18;Leicht bewölkt;7;3;0
09.01.2018;13:00:00;15;Leicht bewölkt;7;4;0
09.01.2018;14:00:00;23;Leicht bewölkt;7;4;0
09.01.2018;15:00:00;23;Leicht bewölkt;7;4;0
09.01.2018;16:00:00;45;Leicht bewölkt;7;4;0
09.01.2018;17:00:00;37;Bewölkt;6;4;0
09.01.2018;18:00:00;27;Bewölkt;6;4;0
09.01.2018;19:00:00;14;Bewölkt;6;3;0
09.01.2018;20:00:00;5;Leicht bewölkt;6;3;0
09.01.2018;21:00:00;11;Leicht bewölkt;6;3;0
09.01.2018;22:00:00;8;Leicht bewölkt;6;3;0
09.01.2018;23:00:00;2;Leicht bewölkt;6;3;0
10.01.2018;00:00:00;2;Leicht bewölkt;6;3;0
10.01.2018;01:00:00;0;Leicht bewölkt;6;3;0
10.01.2018;02:00:00;0;Bedeckt;6;3;0
10.01.2018;03:00:00;0;Bedeckt;6;4;0
10.01.2018;04:00:00;2;Bedeckt;6;4;0
10.01.2018;05:00:00;9;Bedeckt;7;3;0
10.01.2018;06:00:00;24;Bedeckt;7;3;0
10.01.2018;07:00:00;37;Bedeckt;7;3;0
10.01.2018;08:00:00;38;Bedeckt;8;3;0
10.01.2018;09:00:00;15;Bedeckt;8;3;0
10.01.2018;10:00:00;14;Bedeckt;8;4;0
10.01.2018;11:00:00;7;Nieselregen;8;5;0
10.01.2018;12:00:00;11;Nieselregen;9;5;0
10.01.2018;13:00:00;19;Nieselregen;8;6;0
10.01.2018;14:00:00;20;Leicht bewölkt;8;6;0
10.01.2018;15:00:00;23;Leicht bewölkt;8;6;0
10.01.2018;16:00:00;29;Leicht bewölkt;7;6;0
10.01.2018;17:00:00;31;Bedeckt;7;6;0
10.01.2018;18:00:00;24;Bedeckt;6;6;0
10.01.2018;19:00:00;19;Bedeckt;6;6;0
10.01.2018;20:00:00;5;Bedeckt;6;6;0
10.01.2018;21:00:00;10;Bedeckt;5;5;0
10.01.2018;22:00:00;11;Bedeckt;5;6;0
10.01.2018;23:00:00;0;Nieselregen;5;6;0
11.01.2018;00:00:00;2;Nieselregen;4;6;0
11.01.2018;01:00:00;0;Nieselregen;4;6;0
11.01.2018;02:00:00;0;Leichter Regenfall;4;5;0
11.01.2018;03:00:00;0;Leichter Regenfall;5;5;0
11.01.2018;04:00:00;2;Leichter Regenfall;5;5;0
11.01.2018;05:00:00;3;Leichter Nebel;5;5;0
11.01.2018;06:00:00;13;Leichter Nebel;6;4;0
11.01.2018;07:00:00;32;Leichter Nebel;6;4;0
11.01.2018;08:00:00;45;Leichter Nebel;6;4;0
11.01.2018;09:00:00;33;Leichter Nebel;7;4;0
11.01.2018;10:00:00;20;Leichter Nebel;7;5;0
11.01.2018;11:00:00;8;Leichter Nebel;7;6;0
11.01.2018;12:00:00;14;Leichter Nebel;7;6;0
11.01.2018;13:00:00;12;Leichter Nebel;7;7;0
11.01.2018;14:00:00;17;Bewölkt;7;7;0
11.01.2018;15:00:00;21;Bewölkt;7;7;0
11.01.2018;16:00:00;28;Bewölkt;6;6;0
11.01.2018;17:00:00;39;Bewölkt;6;6;0
11.01.2018;18:00:00;30;Bewölkt;6;5;0
11.01.2018;19:00:00;19;Bewölkt;5;5;0
11.01.2018;20:00:00;10;Bedeckt;5;4;0
11.01.2018;21:00:00;7;Bedeckt;4;4;0
11.01.2018;22:00:00;6;Bedeckt;4;4;0
11.01.2018;23:00:00;10;Leicht bewölkt;4;3;0
12.01.2018;00:00:00;2;Leicht bewölkt;4;3;0
12.01.2018;01:00:00;0;Leicht bewölkt;4;3;0
12.01.2018;02:00:00;0;Leichter Nebel;4;3;0
12.01.2018;03:00:00;0;Leichter Nebel;4;3;0
12.01.2018;04:00:00;0;Leichter Nebel;4;3;0
12.01.2018;05:00:00;6;Leichter Nebel;5;3;0
12.01.2018;06:00:00;25;Leichter Nebel;5;3;0
12.01.2018;07:00:00;45;Leichter Nebel;5;3;0
12.01.2018;08:00:00;40;Leichter Nebel;5;4;0
12.01.2018;09:00:00;15;Leichter Nebel;6;4;0
12.01.2018;10:00:00;12;Leichter Nebel;6;4;0
12.01.2018;11:00:00;10;Bedeckt;6;5;0
12.01.2018;12:00:00;12;Bedeckt;6;5;0
12.01.2018;13:00:00;20;Bedeckt;6;5;0
12.01.2018;14:00:00;22;Bedeckt;6;6;0
12.01.2018;15:00:00;25;Bedeckt;6;6;0
12.01.2018;16:00:00;31;Bedeckt;5;6;0
12.01.2018;17:00:00;29;Bewölkt;5;6;0
12.01.2018;18:00:00;22;Bewölkt;5;5;0
12.01.2018;19:00:00;7;Bewölkt;4;5;0
12.01.2018;20:00:00;11;Bedeckt;4;5;0
12.01.2018;21:00:00;8;Bedeckt;4;5;0
12.01.2018;22:00:00;2;Bedeckt;4;5;0
12.01.2018;23:00:00;2;Bedeckt;3;5;0
13.01.2018;00:00:00;0;Bedeckt;3;4;0
13.01.2018;01:00:00;2;Bedeckt;3;4;0
13.01.2018;02:00:00;0;Bewölkt;3;3;0
13.01.2018;03:00:00;0;Bewölkt;4;3;0
13.01.2018;04:00:00;0;Bewölkt;4;2;0
13.01.2018;05:00:00;4;Leichter Nebel;4;2;0
13.01.2018;06:00:00;2;Leichter Nebel;5;1;0
13.01.2018;07:00:00;4;Leichter Nebel;5;1;0
13.01.2018;08:00:00;6;Bewölkt;5;1;0
13.01.2018;09:00:00;9;Bewölkt;6;1;0
13.01.2018;10:00:00;17;Bewölkt;6;2;0
13.01.2018;11:00:00;34;Leicht bewölkt;6;3;0
13.01.2018;12:00:00;28;Leicht bewölkt;7;3;0
13.01.2018;13:00:00;28;Leicht bewölkt;6;4;0
13.01.2018;14:00:00;26;Leicht bewölkt;6;4;0
13.01.2018;15:00:00;22;Leicht bewölkt;6;5;0
13.01.2018;16:00:00;20;Leicht bewölkt;5;4;0
13.01.2018;17:00:00;8;Leicht bewölkt;5;4;0
13.01.2018;18:00:00;7;Leicht bewölkt;4;3;0
13.01.2018;19:00:00;4;Leicht bewölkt;4;3;0
13.01.2018;20:00:00;6;Leicht bewölkt;3;2;0
13.01.2018;21:00:00;2;Leicht bewölkt;3;2;0
13.01.2018;22:00:00;0;Leicht bewölkt;2;1;0
13.01.2018;23:00:00;0;Leicht bewölkt;2;1;0
14.01.2018;00:00:00;0;Leicht bewölkt;2;1;0
14.01.2018;01:00:00;0;Leicht bewölkt;2;0;0
14.01.2018;02:00:00;0;Leicht bewölkt;2;0;0
14.01.2018;03:00:00;0;Leicht bewölkt;2;-1;0
14.01.2018;04:00:00;0;Leicht bewölkt;2;-1;0
14.01.2018;05:00:00;4;Leicht bewölkt;3;-1;0
14.01.2018;06:00:00;3;Leicht bewölkt;3;-2;0
14.01.2018;07:00:00;2;Leicht bewölkt;3;-2;0
14.01.2018;08:00:00;9;Leicht bewölkt;3;-2;0
14.01.2018;09:00:00;17;Leicht bewölkt;4;-2;0
14.01.2018;10:00:00;29;Leicht bewölkt;4;-2;0
14.01.2018;11:00:00;67;Leicht bewölkt;4;-1;0
14.01.2018;12:00:00;78;Leicht bewölkt;4;0;0
14.01.2018;13:00:00;70;Leicht bewölkt;4;0;0
14.01.2018;14:00:00;86;Leicht bewölkt;4;1;0
14.01.2018;15:00:00;45;Leicht bewölkt;4;1;0
14.01.2018;16:00:00;25;Leicht bewölkt;4;1;0
14.01.2018;17:00:00;26;Sonnig;4;0;0
14.01.2018;18:00:00;4;Sonnig;4;-1;0
14.01.2018;19:00:00;4;Sonnig;3;-1;0
14.01.2018;20:00:00;5;Sonnig;3;-1;0
14.01.2018;21:00:00;2;Sonnig;3;-2;0
14.01.2018;22:00:00;0;Sonnig;3;-2;0
14.01.2018;23:00:00;2;Sonnig;3;-2;0
15.01.2018;00:00:00;0;Sonnig;3;-3;0
15.01.2018;01:00:00;0;Sonnig;3;-2;0
15.01.2018;02:00:00;0;Sonnig;3;-2;0
15.01.2018;03:00:00;0;Sonnig;3;-2;0
15.01.2018;04:00:00;0;Sonnig;4;-2;0
15.01.2018;05:00:00;12;Leicht bewölkt;4;-2;0
15.01.2018;06:00:00;24;Leicht bewölkt;5;-2;0
15.01.2018;07:00:00;44;Leicht bewölkt;5;-1;0
15.01.2018;08:00:00;44;Leicht bewölkt;6;-1;0
15.01.2018;09:00:00;18;Leicht bewölkt;6;0;0
15.01.2018;10:00:00;11;Leicht bewölkt;7;1;0
15.01.2018;11:00:00;13;Bedeckt;7;2;0
15.01.2018;12:00:00;5;Bedeckt;8;3;0
15.01.2018;13:00:00;12;Bedeckt;8;3;0
15.01.2018;14:00:00;16;Stellenweiser Regenfall;7;3;0
15.01.2018;15:00:00;21;Stellenweiser Regenfall;7;3;0
15.01.2018;16:00:00;29;Stellenweiser Regenfall;7;3;1
15.01.2018;17:00:00;28;Leichter Regenfall;7;3;1
15.01.2018;18:00:00;21;Leichter Regenfall;7;3;1
15.01.2018;19:00:00;11;Leichter Regenfall;7;3;1
15.01.2018;20:00:00;12;Mäßiger Regenfall;7;2;1
15.01.2018;21:00:00;7;Mäßiger Regenfall;7;1;1
15.01.2018;22:00:00;5;Mäßiger Regenfall;6;1;1
15.01.2018;23:00:00;3;Mäßiger Regenfall;6;2;1
16.01.2018;00:00:00;0;Mäßiger Regenfall;6;2;1
16.01.2018;01:00:00;0;Mäßiger Regenfall;6;2;1
16.01.2018;02:00:00;0;Stellenweiser leichter Regenfall;6;3;0
16.01.2018;03:00:00;0;Stellenweiser leichter Regenfall;6;3;0
16.01.2018;04:00:00;2;Stellenweiser leichter Regenfall;6;3;0
16.01.2018;05:00:00;10;Nieselregen;6;3;0
16.01.2018;06:00:00;21;Nieselregen;6;3;0
16.01.2018;07:00:00;35;Nieselregen;6;3;0
16.01.2018;08:00:00;40;Stellenweiser Regenfall;6;2;1
16.01.2018;09:00:00;8;Stellenweiser Regenfall;6;2;1
16.01.2018;10:00:00;11;Stellenweiser Regenfall;6;2;1
16.01.2018;11:00:00;4;Leichter Regenschauer;6;2;1
16.01.2018;12:00:00;11;Leichter Regenschauer;7;2;1
16.01.2018;13:00:00;9;Leichter Regenschauer;6;2;1
16.01.2018;14:00:00;15;Leichter Regenschauer;6;2;0
16.01.2018;15:00:00;8;Leichter Regenschauer;6;2;0
16.01.2018;16:00:00;24;Leichter Regenschauer;5;2;0
16.01.2018;17:00:00;20;Stellenweiser Regenfall;5;1;0
16.01.2018;18:00:00;13;Stellenweiser Regenfall;4;1;0
16.01.2018;19:00:00;13;Stellenweiser Regenfall;4;1;0
16.01.2018;20:00:00;3;Leichte Eisregen;4;0;0
16.01.2018;21:00:00;2;Leichte Eisregen;3;0;0
16.01.2018;22:00:00;6;Leichte Eisregen;3;0;0
16.01.2018;23:00:00;2;Leichte Eisregen;3;-1;0
17.01.2018;00:00:00;0;Leichte Eisregen;2;-1;0
17.01.2018;01:00:00;0;Leichte Eisregen;2;-1;0
17.01.2018;02:00:00;0;Mäßige bis starke Schneefälle;2;-1;1
17.01.2018;03:00:00;0;Mäßige bis starke Schneefälle;3;-1;1
17.01.2018;04:00:00;0;Mäßige bis starke Schneefälle;3;-1;1
17.01.2018;05:00:00;10;Mäßige bis starke Eisregen;3;-2;1
17.01.2018;06:00:00;16;Mäßige bis starke Eisregen;3;-2;1
17.01.2018;07:00:00;36;Mäßige bis starke Eisregen;3;-2;1
17.01.2018;08:00:00;36;Mäßige bis starke Schneefälle;4;-2;1
17.01.2018;09:00:00;9;Mäßige bis starke Schneefälle;4;-2;0
17.01.2018;10:00:00;4;Mäßige bis starke Schneefälle;4;-2;0
17.01.2018;11:00:00;4;Mäßige bis starke Schneefälle;4;-2;0
17.01.2018;12:00:00;6;Mäßige bis starke Schneefälle;4;-1;0
17.01.2018;13:00:00;2;Mäßige bis starke Schneefälle;4;-1;0
17.01.2018;14:00:00;13;Leichter Eisregen;4;-1;0
17.01.2018;15:00:00;5;Leichter Eisregen;4;-1;0
17.01.2018;16:00:00;15;Leichter Eisregen;3;-1;0
17.01.2018;17:00:00;20;Leichte Eisregen;3;-1;0
17.01.2018;18:00:00;14;Leichte Eisregen;3;-1;0
17.01.2018;19:00:00;8;Leichte Eisregen;3;-1;0
17.01.2018;20:00:00;5;Stellenweiser Regenfall;2;-2;0
17.01.2018;21:00:00;6;Stellenweiser Regenfall;2;-2;0
17.01.2018;22:00:00;8;Stellenweiser Regenfall;4;-2;0
17.01.2018;23:00:00;2;Leichte Eisregen;5;-2;0
18.01.2018;00:00:00;0;Leichte Eisregen;7;-2;0
18.01.2018;01:00:00;0;Leichte Eisregen;7;-1;0
18.01.2018;02:00:00;0;Mäßige bis starke Schneefälle;7;-1;0
18.01.2018;03:00:00;0;Mäßige bis starke Schneefälle;7;-1;0
18.01.2018;04:00:00;2;Mäßige bis starke Schneefälle;7;0;0
18.01.2018;05:00:00;9;Nieselregen;8;1;1
18.01.2018;06:00:00;10;Nieselregen;8;2;1
18.01.2018;07:00:00;20;Nieselregen;8;3;1
18.01.2018;08:00:00;17;Mäßiger Regenfall;9;3;1
18.01.2018;09:00:00;4;Mäßiger Regenfall;9;4;1
18.01.2018;10:00:00;0;Mäßiger Regenfall;9;4;1
18.01.2018;11:00:00;0;Leichter Regenfall;9;4;0
18.01.2018;12:00:00;0;Leichter Regenfall;10;3;0
18.01.2018;13:00:00;6;Leichter Regenfall;9;3;0
18.01.2018;14:00:00;2;Leichter Regenfall;9;3;0
18.01.2018;15:00:00;9;Leichter Regenfall;9;2;0
18.01.2018;16:00:00;9;Leichter Regenfall;8;2;0
18.01.2018;17:00:00;25;Leichter Regenschauer;7;2;0
18.01.2018;18:00:00;11;Leichter Regenschauer;7;2;0
18.01.2018;19:00:00;9;Leichter Regenschauer;6;2;0
18.01.2018;20:00:00;4;Nieselregen;5;2;0
18.01.2018;21:00:00;4;Nieselregen;5;1;0
18.01.2018;22:00:00;7;Nieselregen;4;1;0
18.01.2018;23:00:00;7;Leichter Regenschauer;4;1;0
19.01.2018;00:00:00;0;Leichter Regenschauer;3;1;0
19.01.2018;01:00:00;0;Leichter Regenschauer;3;1;0
19.01.2018;02:00:00;0;Bedeckt;4;0;0
19.01.2018;03:00:00;0;Bedeckt;4;0;1
19.01.2018;04:00:00;2;Bedeckt;4;0;1
19.01.2018;05:00:00;16;Mäßiger bis starker Eisregen;4;-1;1
19.01.2018;06:00:00;9;Mäßiger bis starker Eisregen;4;-1;1
19.01.2018;07:00:00;28;Mäßiger bis starker Eisregen;4;-1;1
19.01.2018;08:00:00;35;Mäßiger bis starker Eisregen;5;-1;1
19.01.2018;09:00:00;11;Mäßiger bis starker Eisregen;5;-1;0
19.01.2018;10:00:00;8;Mäßiger bis starker Eisregen;5;0;0
19.01.2018;11:00:00;7;Leichter Schneefall;5;0;0
19.01.2018;12:00:00;7;Leichter Schneefall;5;1;0
19.01.2018;13:00:00;13;Leichter Schneefall;5;1;0
19.01.2018;14:00:00;18;Leichte Eisregen;5;1;0
19.01.2018;15:00:00;17;Leichte Eisregen;5;2;0
19.01.2018;16:00:00;32;Leichte Eisregen;4;1;0
19.01.2018;17:00:00;25;Leichte Eisregen;4;1;0
19.01.2018;18:00:00;15;Leichte Eisregen;3;1;0
19.01.2018;19:00:00;8;Leichte Eisregen;3;0;0
19.01.2018;20:00:00;14;Leichte Eisregen;3;0;0
19.01.2018;21:00:00;7;Leichte Eisregen;2;-1;0
19.01.2018;22:00:00;6;Leichte Eisregen;2;-1;0
19.01.2018;23:00:00;2;Leichte Eisregen;2;-1;0
20.01.2018;00:00:00;0;Leichte Eisregen;2;-1;0
20.01.2018;01:00:00;9;Leichte Eisregen;2;-1;0
20.01.2018;02:00:00;0;Mäßiger bis starker Schneefall mit Gewitter;2;-1;0
20.01.2018;03:00:00;0;Mäßiger bis starker Schneefall mit Gewitter;2;-1;0
20.01.2018;04:00:00;0;Mäßiger bis starker Schneefall mit Gewitter;2;-1;0
20.01.2018;05:00:00;2;Leichte Eisregen;3;-2;0
20.01.2018;06:00:00;2;Leichte Eisregen;3;-2;0
20.01.2018;07:00:00;0;Leichte Eisregen;3;-1;0
20.01.2018;08:00:00;7;Mäßige bis starke Schneefälle;4;-1;0
20.01.2018;09:00:00;9;Mäßige bis starke Schneefälle;4;-1;0
20.01.2018;10:00:00;22;Mäßige bis starke Schneefälle;4;0;0
20.01.2018;11:00:00;16;Stellenweiser Regenfall;4;1;0
20.01.2018;12:00:00;40;Stellenweiser Regenfall;5;2;0
20.01.2018;13:00:00;11;Stellenweiser Regenfall;4;2;0
20.01.2018;14:00:00;4;Bedeckt;4;2;0
20.01.2018;15:00:00;7;Bedeckt;4;2;0
20.01.2018;16:00:00;10;Bedeckt;4;3;0
20.01.2018;17:00:00;4;Leichter Regenfall;3;3;0
20.01.2018;18:00:00;6;Leichter Regenfall;3;4;1
20.01.2018;19:00:00;6;Leichter Regenfall;2;3;0
20.01.2018;20:00:00;0;Leichter Regenfall;2;2;0
20.01.2018;21:00:00;4;Leichter Regenfall;2;2;0
20.01.2018;22:00:00;0;Leichter Regenfall;1;1;0
20.01.2018;23:00:00;2;Leichter Eisregen;1;0;0
21.01.2018;00:00:00;0;Leichter Eisregen;1;0;0
21.01.2018;01:00:00;2;Leichter Eisregen;1;-1;0
21.01.2018;02:00:00;2;Leichter Eisregen;1;-1;0
21.01.2018;03:00:00;0;Leichter Eisregen;1;-1;0
21.01.2018;04:00:00;0;Leichter Eisregen;2;-2;0
21.01.2018;05:00:00;0;Stellenweise starker Schneefall;2;-2;0
21.01.2018;06:00:00;2;Stellenweise starker Schneefall;2;-2;0
21.01.2018;07:00:00;0;Stellenweise starker Schneefall;3;-2;0
21.01.2018;08:00:00;2;Leichte Schneeschauer;3;-2;0
21.01.2018;09:00:00;13;Leichte Schneeschauer;3;-2;0
21.01.2018;10:00:00;17;Leichte Schneeschauer;4;-1;0
21.01.2018;11:00:00;33;Leicht bewölkt;4;0;0
21.01.2018;12:00:00;49;Leicht bewölkt;4;1;0
21.01.2018;13:00:00;54;Leicht bewölkt;4;1;0
21.01.2018;14:00:00;34;Leicht bewölkt;4;2;0
21.01.2018;15:00:00;26;Leicht bewölkt;4;3;0
21.01.2018;16:00:00;9;Leicht bewölkt;4;2;0
21.01.2018;17:00:00;9;Leicht bewölkt;4;2;0
21.01.2018;18:00:00;4;Leicht bewölkt;4;2;0
21.01.2018;19:00:00;0;Leicht bewölkt;4;1;0
21.01.2018;20:00:00;7;Leicht bewölkt;4;0;0
21.01.2018;21:00:00;4;Leicht bewölkt;4;-1;0
21.01.2018;22:00:00;0;Leicht bewölkt;4;-1;0
21.01.2018;23:00:00;2;Bewölkt;4;-1;0
22.01.2018;00:00:00;0;Bewölkt;4;-1;0
22.01.2018;01:00:00;0;Bewölkt;4;-1;0
22.01.2018;02:00:00;0;Bedeckt;4;-1;0
22.01.2018;03:00:00;0;Bedeckt;4;-1;0
22.01.2018;04:00:00;2;Bedeckt;5;-1;0
22.01.2018;05:00:00;14;Nieselregen;5;0;0
22.01.2018;06:00:00;22;Nieselregen;6;1;0
22.01.2018;07:00:00;26;Nieselregen;6;2;0
22.01.2018;08:00:00;37;Nieselregen;6;2;0
22.01.2018;09:00:00;16;Nieselregen;7;3;0
22.01.2018;10:00:00;6;Nieselregen;7;4;0
22.01.2018;11:00:00;10;Nieselregen;7;4;0
22.01.2018;12:00:00;15;Nieselregen;7;5;0
22.01.2018;13:00:00;17;Nieselregen;7;5;0
22.01.2018;14:00:00;18;Bedeckt;7;5;0
22.01.2018;15:00:00;14;Bedeckt;7;5;0